CW3699 Weather Reports


time (UTC)temp
C
wind
direction
speed
KPH
gust
KPH
rain 1hr
cm
rain 24hr
cm
rain mn
cm
humidity
%
barometer
mb
20260508182413 8 73 8.0 14.5 0.00 0.00 0.00 68 1007.7
20260508181914 8 61 6.4 19.3 0.00 0.00 0.00 67 1007.7
20260508181411 8 48 8.0 16.1 0.00 0.00 0.00 68 1007.9
20260508180913 8 66 6.4 14.5 0.00 0.00 0.00 67 1007.9
20260508180413 8 70 4.8 12.9 0.00 0.00 0.00 69 1007.9
20260508175913 7 50 9.7 19.3 0.00 0.00 0.00 69 1007.9
20260508175412 8 54 8.0 12.9 0.00 0.00 0.00 67 1008.0
20260508174913 8 59 8.0 14.5 0.00 0.00 0.00 68 1008.1
20260508174412 7 81 4.8 11.3 0.00 0.00 0.00 69 1008.2
20260508173913 8 58 9.7 14.5 0.00 0.00 0.00 68 1008.2
20260508173413 8 54 8.0 14.5 0.00 0.00 0.00 71 1008.2
20260508172912 8 46 8.0 12.9 0.00 0.00 0.00 70 1008.4
20260508172412 7 53 6.4 11.3 0.00 0.00 0.00 72 1008.4
20260508171412 7 54 9.7 14.5 0.00 0.00 0.00 72 1008.5
20260508170910 7 38 8.0 14.5 0.00 0.00 0.00 72 1008.5
20260508170412 7 52 9.7 19.3 0.00 0.00 0.00 73 1008.5
20260508165411 7 48 8.0 14.5 0.00 0.00 0.00 73 1008.7
20260508164912 7 70 4.8 12.9 0.00 0.00 0.00 73 1008.8
20260508164412 7 54 8.0 16.1 0.00 0.00 0.00 74 1008.8
20260508163912 7 75 6.4 14.5 0.00 0.00 0.00 73 1008.9
20260508163413 7 56 9.7 14.5 0.00 0.00 0.00 71 1008.9
20260508162911 7 56 4.8 16.1 0.00 0.00 0.00 74 1008.9
20260508162412 7 73 6.4 14.5 0.00 0.00 0.00 75 1009.0
20260508161910 7 96 8.0 14.5 0.00 0.00 0.00 75 1009.0
20260508161414 7 61 3.2 11.3 0.00 0.00 0.00 77 1009.0
20260508160912 7 58 8.0 14.5 0.00 0.00 0.00 76 1009.0
20260508160412 7 65 8.0 12.9 0.00 0.00 0.00 76 1009.0
20260508155912 7 85 6.4 9.7 0.00 0.00 0.00 77 1009.0
20260508155411 7 51 4.8 9.7 0.00 0.00 0.00 76 1009.0
20260508154911 7 67 4.8 11.3 0.00 0.00 0.00 75 1009.0
20260508154411 7 54 4.8 11.3 0.00 0.00 0.00 74 1009.0
20260508153910 7 40 8.0 11.3 0.00 0.00 0.00 75 1009.1
20260508153413 7 23 4.8 8.0 0.00 0.00 0.00 75 1009.0
20260508152912 7 40 4.8 8.0 0.00 0.00 0.00 75 1009.2
20260508151412 7 52 3.2 4.8 0.00 0.00 0.00 75 1009.2
20260508150913 7 48 4.8 4.8 0.00 0.00 0.00 75 1009.2
20260508150413 7 72 4.8 8.0 0.00 0.00 0.00 74 1009.2
20260508145911 7 27 3.2 8.0 0.00 0.00 0.00 75 1009.3
20260508145410 7 47 3.2 4.8 0.00 0.00 0.00 75 1009.3
20260508144911 7 63 4.8 8.0 0.00 0.00 0.00 77 1009.3
20260508144411 7 5 3.2 4.8 0.00 0.00 0.00 77 1009.3
20260508143415 7 47 3.2 4.8 0.00 0.00 0.00 78 1009.3
20260508142911 7 7 3.2 4.8 0.00 0.00 0.00 78 1009.4
20260508142412 7 37 3.2 4.8 0.00 0.00 0.00 78 1009.4
20260508141912 7 357 4.8 8.0 0.00 0.00 0.00 77 1009.4
20260508141412 7 11 3.2 4.8 0.00 0.00 0.00 80 1009.5
20260508140911 7 8 3.2 4.8 0.00 0.00 0.00 79 1009.5
20260508140411 7 353 4.8 8.0 0.00 0.00 0.00 76 1009.5
20260508135912 7 0 4.8 9.7 0.00 0.00 0.00 75 1009.5
20260508135412 7 17 3.2 4.8 0.00 0.00 0.00 78 1009.5
20260508134911 6 12 4.8 11.3 0.00 0.00 0.00 78 1009.5
20260508133911 6 338 3.2 8.0 0.00 0.00 0.00 78 1009.7
20260508133411 6 308 1.6 8.0 0.00 0.00 0.00 78 1009.7
20260508132912 6 5 3.2 8.0 0.00 0.00 0.00 77 1009.7
20260508132412 6 1 3.2 4.8 0.00 0.00 0.00 76 1009.8
20260508131912 6 329 3.2 8.0 0.00 0.00 0.00 74 1009.8
20260508130412 6 324 3.2 9.7 0.00 0.00 0.00 75 1009.8
20260508125911 6 262 1.6 4.8 0.00 0.00 0.00 75 1009.8
20260508125412 6 356 3.2 4.8 0.00 0.00 0.00 75 1009.9
20260508124413 5 323 3.2 9.7 0.00 0.00 0.00 78 1009.9
20260508123910 5 253 3.2 9.7 0.00 0.00 0.00 78 1009.9
20260508123411 5 307 3.2 8.0 0.00 0.00 0.00 78 1009.8
20260508122412 5 238 3.2 4.8 0.00 0.00 0.00 80 1009.8
20260508121911 5 210 4.8 9.7 0.00 0.00 0.00 80 1009.8
20260508121412 4 204 3.2 8.0 0.00 0.00 0.00 82 1009.8
20260508120912 4 262 4.8 11.3 0.00 0.00 0.00 83 1009.8
20260508120411 3 223 3.2 8.0 0.00 0.00 0.00 85 1009.9
20260508115912 3 223 3.2 11.3 0.00 0.00 0.00 87 1009.9
20260508115412 3 222 1.6 8.0 0.00 0.00 0.00 88 1009.9
20260508114912 2 233 3.2 9.7 0.00 0.00 0.00 89 1009.8
20260508113912 2 201 4.8 14.5 0.00 0.00 0.00 91 1009.9
20260508113412 2 206 3.2 8.0 0.00 0.00 0.00 91 1010.0
20260508112912 1 227 4.8 9.7 0.00 0.00 0.00 92 1009.8
20260508112413 1 217 3.2 4.8 0.00 0.00 0.00 92 1009.8
20260508111912 1 185 3.2 8.0 0.00 0.00 0.00 93 1009.8
20260508111412 1 222 3.2 8.0 0.00 0.00 0.00 93 1009.8
20260508110912 0 184 3.2 4.8 0.00 0.00 0.00 94 1009.8
20260508110412 0 182 3.2 4.8 0.00 0.00 0.00 93 1009.8
20260508105912 0 199 3.2 4.8 0.00 0.00 0.00 93 1009.8
20260508105412 0 184 1.6 4.8 0.00 0.00 0.00 92 1009.7
20260508104911 0 181 3.2 9.7 0.00 0.00 0.00 92 1009.6
20260508104413 0 187 4.8 8.0 0.00 0.00 0.00 91 1009.7
20260508103912 0 169 3.2 4.8 0.00 0.00 0.00 91 1009.7
20260508103412 0 193 3.2 4.8 0.00 0.00 0.00 91 1009.6
20260508102910 0 176 3.2 4.8 0.00 0.00 0.00 91 1009.7
20260508102412 0 178 3.2 4.8 0.00 0.00 0.00 91 1009.7
20260508101912 0 181 3.2 4.8 0.00 0.00 0.00 91 1009.7
20260508101412 0 174 3.2 4.8 0.00 0.00 0.00 91 1009.7
20260508100912 0 175 3.2 4.8 0.00 0.00 0.00 90 1009.6
20260508095911 0 173 3.2 4.8 0.00 0.00 0.00 91 1009.6
20260508095412 0 176 3.2 4.8 0.00 0.00 0.00 90 1009.6
20260508094912 0 187 3.2 4.8 0.00 0.00 0.00 90 1009.6
20260508094411 0 182 3.2 4.8 0.00 0.00 0.00 90 1009.6
20260508093911 0 184 3.2 4.8 0.00 0.00 0.00 89 1009.7
20260508093410 0 176 3.2 4.8 0.00 0.00 0.00 89 1009.8
20260508092910 0 184 3.2 4.8 0.00 0.00 0.00 89 1009.7
20260508092412 0 180 4.8 4.8 0.00 0.00 0.00 89 1009.7
20260508091412 0 169 3.2 4.8 0.00 0.00 0.00 88 1009.9
20260508090910 0 187 3.2 8.0 0.00 0.00 0.00 88 1009.9
20260508090412 0 183 1.6 3.2 0.00 0.00 0.00 88 1009.9
20260508085911 0 187 0.0 3.2 0.00 0.00 0.00 88 1010.0
20260508085410 0 164 1.6 4.8 0.00 0.00 0.00 88 1010.0
20260508083910 0 175 1.6 4.8 0.00 0.00 0.00 89 1010.0
20260508083414 0 181 1.6 4.8 0.00 0.00 0.00 90 1009.9
20260508082412 0 203 1.6 4.8 0.00 0.00 0.00 90 1009.9
20260508081411 0 166 3.2 4.8 0.00 0.00 0.00 91 1010.0
20260508080912 0 188 3.2 4.8 0.00 0.00 0.00 91 1010.0
20260508080410 0 185 4.8 8.0 0.00 0.00 0.00 90 1010.0
20260508075910 0 190 3.2 4.8 0.00 0.00 0.00 90 1009.9
20260508075410 0 172 3.2 8.0 0.00 0.00 0.00 90 1009.9
20260508074910 0 173 3.2 4.8 0.00 0.00 0.00 90 1010.0
20260508074412 0 168 3.2 8.0 0.00 0.00 0.00 90 1010.0
20260508073912 0 174 3.2 4.8 0.00 0.00 0.00 90 1010.1
20260508072912 0 174 3.2 8.0 0.00 0.00 0.00 90 1010.2
20260508072411 0 179 3.2 4.8 0.00 0.00 0.00 90 1010.3
20260508071411 0 168 3.2 4.8 0.00 0.00 0.00 90 1010.4
20260508070911 0 166 3.2 4.8 0.00 0.00 0.00 90 1010.5
20260508070414 0 164 3.2 4.8 0.00 0.00 0.00 90 1010.5
20260508065910 0 172 3.2 4.8 0.00 0.00 0.00 90 1010.7
20260508065410 0 167 3.2 4.8 0.00 0.00 0.00 90 1010.7
20260508064911 0 169 3.2 4.8 0.00 0.00 0.00 90 1010.8
20260508064410 0 176 3.2 4.8 0.00 0.00 0.00 90 1010.9
20260508063911 0 187 3.2 4.8 0.00 0.00 0.00 90 1010.9
20260508063413 0 182 1.6 4.8 0.00 0.00 0.00 90 1011.0
20260508062911 0 182 1.6 3.2 0.00 0.00 0.00 90 1011.0
20260508062411 0 218 1.6 3.2 0.00 0.00 0.00 90 1011.0
20260508061410 0 182 1.6 4.8 0.00 0.00 0.00 90 1011.0
20260508060412 0 180 1.6 3.2 0.00 0.00 0.00 90 1010.9
20260508055912 0 179 1.6 3.2 0.00 0.00 0.00 90 1010.9
20260508055410 0 164 3.2 4.8 0.00 0.00 0.00 90 1011.0
20260508054912 0 161 3.2 4.8 0.00 0.00 0.00 90 1011.1
20260508054411 0 165 1.6 4.8 0.00 0.00 0.00 89 1011.1
20260508053410 0 152 1.6 3.2 0.00 0.00 0.00 89 1011.2
20260508052410 0 166 1.6 4.8 0.00 0.00 0.00 89 1011.3
20260508051910 0 159 1.6 4.8 0.00 0.00 0.00 89 1011.3
20260508051410 0 165 1.6 3.2 0.00 0.00 0.00 89 1011.4
20260508050910 1 162 1.6 3.2 0.00 0.00 0.00 89 1011.4
20260508050414 1 164 3.2 4.8 0.00 0.00 0.00 89 1011.5
20260508045911 1 172 3.2 4.8 0.00 0.00 0.00 89 1011.5
20260508044911 1 155 3.2 3.2 0.00 0.00 0.00 89 1011.4
20260508044410 1 162 1.6 3.2 0.00 0.00 0.00 89 1011.4
20260508043911 1 160 1.6 3.2 0.00 0.00 0.00 89 1011.4
20260508043414 1 165 1.6 3.2 0.00 0.00 0.00 88 1011.4
20260508042910 1 164 1.6 3.2 0.00 0.00 0.00 88 1011.4
20260508042410 1 158 1.6 3.2 0.00 0.00 0.00 88 1011.4
20260508041910 1 164 1.6 3.2 0.00 0.00 0.00 87 1011.4
20260508041411 1 162 1.6 3.2 0.00 0.00 0.00 86 1011.4
20260508040910 1 159 1.6 3.2 0.00 0.00 0.00 86 1011.5
20260508040411 1 183 1.6 4.8 0.00 0.00 0.00 86 1011.4
20260508035912 2 162 1.6 4.8 0.00 0.00 0.00 85 1011.4
20260508035411 2 147 3.2 4.8 0.00 0.00 0.00 84 1011.4
20260508034911 2 153 1.6 3.2 0.00 0.00 0.00 83 1011.3
20260508034412 2 167 1.6 3.2 0.00 0.00 0.00 83 1011.4
20260508033912 2 169 3.2 3.2 0.00 0.00 0.00 83 1011.4
20260508033412 3 177 1.6 3.2 0.00 0.00 0.00 83 1011.3
20260508032911 3 184 1.6 3.2 0.00 0.00 0.00 83 1011.4
20260508032412 3 149 1.6 3.2 0.00 0.00 0.00 83 1011.4
20260508031912 3 156 1.6 3.2 0.00 0.00 0.00 82 1011.4
20260508031411 3 153 1.6 3.2 0.00 0.00 0.00 82 1011.3
20260508030910 4 159 1.6 3.2 0.00 0.00 0.00 82 1011.3
20260508030411 4 161 3.2 4.8 0.00 0.00 0.00 81 1011.4
20260508025912 4 165 1.6 4.8 0.00 0.00 0.00 81 1011.4
20260508024910 4 146 1.6 3.2 0.00 0.00 0.00 81 1011.3
20260508024411 5 237 0.0 1.6 0.00 0.00 0.00 81 1011.3
20260508023910 5 187 1.6 4.8 0.00 0.00 0.00 81 1011.4
20260508023410 5 19 1.6 4.8 0.00 0.00 0.00 81 1011.4
20260508022910 5 177 0.0 3.2 0.00 0.00 0.00 80 1011.4
20260508021410 5 238 1.6 4.8 0.00 0.00 0.00 80 1011.2
20260508020911 5 170 3.2 4.8 0.00 0.00 0.00 80 1011.4
20260508020410 5 166 1.6 4.8 0.00 0.00 0.00 79 1011.4
20260508015911 5 204 0.0 4.8 0.00 0.00 0.00 80 1011.4
20260508014910 5 80 1.6 3.2 0.00 0.00 0.00 79 1011.4
20260508014411 5 38 1.6 3.2 0.00 0.00 0.00 79 1011.4
20260508013410 5 81 0.0 3.2 0.00 0.00 0.00 78 1011.4
20260508012910 5 187 1.6 4.8 0.00 0.00 0.00 77 1011.3
20260508011409 5 179 1.6 4.8 0.00 0.00 0.00 75 1011.1
20260508010911 5 133 0.0 1.6 0.00 0.00 0.00 74 1011.1
20260508010412 5 161 0.0 1.6 0.00 0.00 0.00 73 1011.1
20260508005911 5 122 0.0 3.2 0.00 0.00 0.00 73 1011.0
20260508005411 6 275 0.0 1.6 0.00 0.00 0.00 73 1011.1
20260508004912 6 82 0.0 3.2 0.00 0.00 0.00 73 1010.9
20260508004411 6 223 0.0 1.6 0.00 0.00 0.00 74 1010.9
20260508003911 6 54 1.6 3.2 0.00 0.00 0.00 74 1010.9
20260508003411 6 179 1.6 3.2 0.00 0.00 0.00 75 1010.9
20260508002911 6 214 0.0 1.6 0.00 0.00 0.00 75 1010.9
20260508002410 6 240 0.0 3.2 0.00 0.00 0.00 76 1010.8
20260508001410 6 358 1.6 3.2 0.00 0.00 0.00 74 1010.7
20260508000911 6 354 1.6 3.2 0.00 0.00 0.00 75 1010.7
20260508000412 6 336 0.0 4.8 0.00 0.00 0.00 74 1010.7
20260507235910 6 268 1.6 4.8 0.00 0.00 0.00 73 1010.7
20260507235410 6 340 1.6 3.2 0.00 0.00 0.00 73 1010.7
20260507234912 6 319 1.6 3.2 0.00 0.00 0.00 73 1010.6
20260507234411 6 351 1.6 3.2 0.00 0.00 0.00 72 1010.6
20260507233912 6 16 1.6 3.2 0.00 0.00 0.00 71 1010.6
20260507233410 6 12 1.6 3.2 0.00 0.00 0.00 72 1010.6
20260507232911 6 2 1.6 3.2 0.00 0.00 0.00 72 1010.5
20260507232411 7 333 1.6 4.8 0.00 0.00 0.00 71 1010.6
20260507231910 7 343 1.6 4.8 0.00 0.00 0.00 73 1010.6
20260507231409 7 10 1.6 9.7 0.00 0.00 0.00 71 1010.6
20260507230911 7 34 1.6 3.2 0.00 0.00 0.00 73 1010.6
20260507230411 7 311 1.6 3.2 0.00 0.00 0.00 73 1010.6
20260507225409 7 344 1.6 4.8 0.00 0.00 0.00 72 1010.7
20260507224909 7 340 3.2 4.8 0.00 0.00 0.00 71 1010.7
20260507224411 7 346 1.6 4.8 0.00 0.00 0.00 70 1010.7
20260507223911 7 346 3.2 4.8 0.00 0.00 0.00 70 1010.7
20260507223411 7 334 3.2 4.8 0.00 0.00 0.00 70 1010.7
20260507222909 7 332 3.2 4.8 0.00 0.00 0.00 69 1010.7
20260507222411 7 338 3.2 4.8 0.00 0.00 0.00 67 1010.7
20260507221910 7 343 3.2 8.0 0.00 0.00 0.00 67 1010.7
20260507221409 7 339 3.2 8.0 0.00 0.00 0.00 66 1010.6
20260507220911 7 339 3.2 4.8 0.00 0.00 0.00 65 1010.6
20260507220411 7 359 3.2 8.0 0.00 0.00 0.00 66 1010.6
20260507215410 7 341 3.2 4.8 0.00 0.00 0.00 67 1010.6
20260507213910 7 342 3.2 8.0 0.00 0.00 0.00 66 1010.5
20260507213411 7 345 3.2 4.8 0.00 0.00 0.00 66 1010.5
20260507212911 7 337 3.2 4.8 0.00 0.00 0.00 65 1010.5
20260507211409 7 347 3.2 8.0 0.00 0.00 0.00 65 1010.5
20260507205911 7 328 3.2 4.8 0.00 0.00 0.00 63 1010.5
20260507205411 7 350 4.8 11.3 0.00 0.00 0.00 63 1010.5
20260507204913 8 358 3.2 12.9 0.00 0.00 0.00 62 1010.5
20260507204411 8 342 3.2 4.8 0.00 0.00 0.00 64 1010.5
20260507203910 8 343 3.2 4.8 0.00 0.00 0.00 63 1010.5
20260507202911 8 6 3.2 12.9 0.00 0.00 0.00 58 1010.4
20260507202411 8 357 3.2 9.7 0.00 0.00 0.00 54 1010.5
20260507201410 8 79 1.6 4.8 0.00 0.00 0.00 63 1010.5
20260507200910 8 21 3.2 4.8 0.00 0.00 0.00 61 1010.5
20260507200412 8 19 3.2 8.0 0.00 0.00 0.00 59 1010.5
20260507195910 8 88 3.2 11.3 0.00 0.00 0.00 61 1010.6
20260507195411 8 13 3.2 8.0 0.00 0.00 0.00 61 1010.6
20260507194911 8 3 3.2 9.7 0.00 0.00 0.00 61 1010.7
20260507194410 8 300 4.8 12.9 0.00 0.00 0.00 49 1010.6
20260507193910 8 310 6.4 12.9 0.00 0.00 0.00 50 1010.7
20260507193410 8 13 3.2 9.7 0.00 0.00 0.00 53 1010.7
20260507192910 8 338 4.8 14.5 0.00 0.00 0.00 53 1010.8
20260507192411 8 263 1.6 8.0 0.00 0.00 0.00 55 1010.9
20260507191910 8 233 8.0 27.4 0.00 0.00 0.00 55 1010.8
20260507190911 7 171 1.6 4.8 0.00 0.00 0.00 63 1011.1
20260507190410 7 9 3.2 8.0 0.00 0.00 0.00 67 1011.1
20260507185910 7 51 1.6 4.8 0.00 0.00 0.00 66 1011.1
20260507184911 7 9 3.2 8.0 0.00 0.00 0.00 67 1011.1
20260507184411 7 349 3.2 9.7 0.00 0.00 0.00 68 1011.1
20260507183910 7 0 3.2 4.8 0.00 0.00 0.00 69 1011.2
20260507183411 7 5 4.8 9.7 0.00 0.00 0.00 69 1011.2
20260507182911 7 6 3.2 11.3 0.00 0.00 0.00 70 1011.3